Probability
0 0 0 0 0 0 0 0 0 0 0 0 0 0 0 0 0 0 0 0 3 6 10 10 10 3 3 3 3 6 3 3 0 0 0 0 0 0 0 0 3 0 0
0 0 0 0 0 0 0 0 0 0 0 0 0 0 0 0 0 0 0 0 3 3 6 6 10 10 10 13 6 3 3 3 0 0 0 0 0 0 0 0 0 0 0
0 0 0 0 0 0 0 0 0 0 0 0 0 0 0 0 0 0 0 0 0 0 3 6 3 13 10 10 3 3 3 3 3 0 0 0 0 0 0 0 0 0 0
0 0 0 0 0 0 0 0 0 0 0 0 0 0 0 0 0 0 0 0 0 0 0 0 3 6 6 6 6 3 3 3 3 0 0 0 0 0 0 0 0 0 0
0 0 0 0 0 0 0 0 0 0 0 0 0 0 0 0 0 0 0 0 0 0 0 0 0 0 0 6 6 6 3 3 3 3 0 0 0 0 0 0 0 0 0
0 0 0 0 0 0 0 0 0 0 0 0 0 0 0 0 0 0 0 0 0 0 0 0 0 0 0 0 0 6 6 3 3 3 0 0 0 0 0 0 0 0 0
0 0 0 0 0 0 0 0 0 0 0 0 0 0 0 0 0 0 0 0 0 0 0 0 0 0 0 0 0 0 6 6 3 3 0 0 0 0 0 0 0 0 0
0 0 0 0 0 0 0 0 0 0 0 0 0 0 0 0 0 0 0 0 0 0 0 0 0 0 0 0 0 0 0 6 6 0 0 0 0 0 0 0 0 0 0
0 0 0 0 0 0 0 0 0 0 0 0 0 0 0 0 0 0 0 0 0 0 0 0 0 0 0 0 0 0 0 0 3 6 0 0 0 0 0 0 0 0 0
0 0 0 0 0 0 0 0 0 0 0 0 0 0 0 0 0 0 0 0 0 0 0 0 0 0 0 0 0 0 0 0 0 3 0 0 0 0 0 0 0 0 0
0 0 0 0 0 0 0 0 0 0 0 0 0 0 0 0 0 0 0 0 0 0 0 0 0 0 0 0 0 0 0 0 0 0 0 0 0 0 0 0 0 0 0
0 0 0 0 0 0 0 0 0 0 0 0 0 0 0 0 0 0 0 0 0 0 0 0 0 0 0 0 0 0 0 0 0 0 0 0 0 0 0 0 0 0 0
0 0 0 0 0 0 0 0 0 0 0 0 0 0 0 0 0 0 0 0 0 0 0 0 0 0 0 0 0 0 0 0 0 0 0 0 0 0 0 0 0 0 0
0 0 0 0 0 0 0 0 0 0 0 0 0 0 0 0 0 0 0 0 0 0 0 0 0 0 0 0 0 0 0 0 0 0 0 0 0 0 0 0 0 0 0
0 0 0 0 0 0 0 0 0 0 0 0 0 0 0 0 0 0 0 0 0 0 0 0 0 0 0 0 0 0 0 0 0 0 0 0 0 0 0 0 0 0 0
0 0 0 0 0 0 0 0 0 0 0 0 0 0 0 0 0 0 0 0 0 0 0 0 0 0 0 0 0 0 0 0 0 0 0 0 0 0 0 0 0 0 0
0 0 0 0 0 0 0 0 0 0 0 0 0 0 0 0 0 0 0 0 0 0 0 0 0 0 0 0 0 0 0 0 0 0 0 0 0 0 0 0 0 0 0
0 0 0 0 0 0 0 0 0 0 0 0 0 0 0 0 0 0 0 0 0 0 0 0 0 0 0 0 0 0 0 0 0 0 0 0 0 0 0 0 0 0 0
0 0 0 0 0 0 0 0 0 0 0 0 0 0 0 0 0 0 0 0 0 0 0 0 0 0 0 0 0 0 0 0 0 0 0 0 0 0 0 0 0 0 0
0 0 0 0 0 0 0 0 0 0 0 0 0 0 0 0 0 0 0 0 0 0 0 0 0 0 0 0 0 0 0 0 0 0 0 0 0 0 0 0 0 0 0
0 0 0 0 0 0 0 0 0 0 0 0 0 0 0 0 0 0 0 0 0 0 0 0 0 0 0 0 0 0 0 0 0 0 0 0 0 0 0 0 0 0 0
0 0 0 0 0 0 0 0 0 0 0 0 0 0 0 0 0 0 0 0 0 0 0 0 0 0 0 0 0 0 0 0 0 0 0 0 0 0 0 0 0 0 0
0 0 0 0 0 0 0 0 0 0 0 0 0 0 0 0 0 0 0 0 0 0 0 0 0 0 0 0 0 0 0 0 0 0 0 0 0 0 0 0 0 0 0
0 0 0 0 0 0 0 0 0 0 0 0 0 0 0 0 0 0 0 0 0 0 0 0 0 0 0 0 0 0 0 0 0 0 0 0 0 0 0 0 0 0 0
0 0 0 0 0 0 0 0 0 0 0 0 0 0 0 0 0 0 0 0 0 0 0 0 0 0 0 0 0 0 0 0 0 0 0 0 0 0 0 0 0 0 0
0 0 0 0 0 0 0 0 0 0 0 0 0 0 0 0 0 0 0 0 0 0 0 0 0 0 0 0 0 0 0 0 0 0 0 0 0 0 0 0 0 0 0
Height
5790 5790 5791 5792 5793 5794 5795 5796 5796 5796 5797 5797 5798 5798 5799 5799 5799 5799 5799 5799 5798 5798 5798 5797 5797 5796 5795 5795 5794 5793 5792 5790 5790 5789 5788 5787 5786 5785 5785 5784 5783 5782 5782
5782 5782 5783 5784 5785 5786 5787 5788 5788 5788 5788 5789 5789 5789 5790 5790 5790 5790 5790 5790 5790 5789 5789 5789 5788 5788 5787 5786 5785 5784 5783 5782 5781 5780 5779 5779 5778 5777 5776 5775 5775 5774 5773
5773 5774 5775 5776 5777 5778 5779 5779 5780 5780 5780 5780 5780 5780 5780 5781 5781 5781 5781 5781 5781 5780 5780 5780 5779 5779 5778 5777 5776 5775 5774 5773 5772 5771 5770 5769 5769 5768 5767 5767 5766 5766 5765
5764 5765 5766 5767 5768 5769 5769 5770 5770 5770 5770 5770 5770 5770 5770 5771 5771 5771 5771 5771 5771 5770 5770 5770 5769 5769 5768 5767 5766 5766 5765 5764 5763 5762 5761 5760 5760 5759 5758 5758 5757 5757 5756
5754 5755 5756 5757 5758 5759 5759 5760 5760 5760 5760 5760 5760 5760 5760 5760 5760 5760 5760 5760 5760 5760 5759 5759 5758 5758 5757 5757 5756 5755 5754 5754 5753 5752 5751 5751 5750 5750 5749 5749 5748 5747 5747
5744 5745 5746 5747 5748 5749 5749 5750 5750 5750 5750 5750 5750 5750 5750 5750 5750 5750 5750 5749 5749 5749 5748 5748 5747 5747 5746 5745 5744 5744 5743 5743 5742 5741 5741 5740 5740 5739 5739 5739 5738 5737 5737
5733 5734 5735 5736 5737 5738 5739 5739 5739 5740 5740 5739 5740 5740 5740 5740 5740 5739 5739 5738 5738 5737 5737 5736 5736 5735 5734 5733 5732 5732 5731 5731 5730 5730 5729 5729 5729 5729 5728 5728 5727 5727 5726
5722 5723 5724 5725 5726 5727 5728 5728 5728 5729 5729 5728 5728 5728 5729 5730 5729 5729 5728 5727 5726 5725 5725 5724 5723 5722 5722 5721 5720 5719 5718 5718 5718 5718 5717 5717 5717 5717 5717 5716 5716 5715 5715
5711 5712 5713 5714 5715 5716 5716 5716 5716 5717 5717 5717 5716 5716 5716 5718 5718 5718 5717 5716 5715 5713 5712 5711 5711 5710 5709 5708 5707 5706 5706 5706 5706 5705 5704 5705 5705 5705 5705 5705 5704 5704 5703
5699 5700 5701 5703 5704 5704 5705 5704 5705 5705 5705 5705 5705 5704 5704 5704 5704 5705 5706 5704 5703 5701 5700 5699 5698 5697 5696 5695 5694 5693 5693 5693 5693 5692 5692 5692 5692 5693 5693 5693 5692 5692 5692
5687 5688 5690 5691 5692 5692 5693 5694 5693 5693 5693 5693 5693 5692 5691 5690 5689 5690 5691 5692 5691 5689 5687 5686 5685 5684 5682 5682 5681 5681 5680 5680 5680 5679 5678 5678 5678 5679 5679 5679 5679 5679 5679
5676 5677 5678 5679 5680 5680 5682 5682 5681 5681 5681 5681 5680 5679 5678 5678 5677 5676 5676 5677 5677 5677 5674 5673 5671 5670 5669 5668 5668 5667 5667 5666 5666 5666 5665 5665 5665 5665 5666 5666 5666 5666 5666
5666 5666 5667 5667 5668 5668 5669 5669 5669 5669 5668 5668 5667 5666 5665 5664 5663 5662 5662 5662 5662 5663 5661 5659 5658 5656 5655 5655 5654 5654 5653 5653 5653 5652 5652 5651 5651 5652 5652 5652 5653 5653 5653
5654 5655 5655 5655 5655 5656 5657 5656 5656 5656 5655 5655 5654 5653 5652 5651 5649 5648 5648 5647 5647 5648 5648 5647 5644 5642 5642 5641 5641 5640 5640 5639 5639 5638 5638 5638 5638 5638 5638 5639 5639 5640 5640
5643 5643 5643 5643 5643 5644 5644 5643 5643 5643 5642 5641 5641 5640 5639 5638 5636 5635 5634 5633 5632 5632 5634 5634 5631 5629 5628 5627 5627 5627 5626 5626 5625 5625 5624 5624 5624 5624 5625 5625 5625 5626 5627
5631 5631 5631 5631 5632 5632 5631 5631 5630 5630 5629 5628 5627 5627 5626 5625 5623 5621 5620 5619 5617 5616 5618 5619 5617 5616 5614 5614 5614 5613 5612 5612 5612 5611 5611 5611 5611 5611 5611 5611 5612 5613 5613
5619 5620 5620 5619 5620 5619 5619 5618 5617 5617 5617 5615 5614 5613 5612 5611 5609 5608 5606 5605 5604 5602 5602 5604 5603 5602 5601 5600 5600 5599 5599 5599 5599 5598 5598 5598 5598 5597 5598 5598 5598 5599 5600
5608 5608 5608 5608 5607 5607 5606 5605 5605 5605 5604 5603 5601 5600 5599 5597 5596 5594 5592 5591 5590 5588 5587 5588 5589 5588 5587 5587 5586 5586 5586 5586 5586 5585 5585 5585 5584 5584 5585 5585 5585 5586 5587
5597 5596 5596 5596 5596 5595 5594 5594 5593 5592 5591 5590 5588 5587 5585 5584 5582 5581 5579 5577 5576 5575 5573 5573 5575 5574 5573 5573 5572 5572 5572 5572 5571 5571 5571 5571 5571 5571 5571 5571 5572 5573 5574
5585 5585 5585 5584 5584 5583 5582 5582 5580 5579 5578 5577 5575 5574 5572 5570 5569 5567 5566 5564 5562 5561 5560 5560 5560 5560 5560 5559 5558 5558 5558 5558 5558 5558 5558 5558 5558 5558 5558 5559 5560 5560 5560
5574 5574 5573 5573 5572 5571 5570 5569 5568 5567 5565 5564 5562 5560 5559 5557 5555 5553 5552 5550 5549 5548 5547 5547 5547 5547 5546 5545 5545 5544 5544 5544 5545 5545 5545 5545 5545 5545 5545 5545 5546 5546 5547
5563 5562 5562 5561 5560 5560 5558 5557 5555 5554 5552 5550 5548 5546 5545 5543 5541 5539 5538 5536 5535 5534 5534 5533 5534 5533 5533 5532 5531 5530 5530 5530 5532 5533 5532 5532 5532 5532 5532 5532 5532 5533 5533
5551 5551 5550 5550 5549 5548 5546 5544 5542 5540 5538 5536 5535 5533 5531 5529 5527 5526 5524 5523 5522 5521 5520 5520 5520 5520 5519 5519 5517 5516 5515 5515 5517 5518 5517 5518 5518 5519 5519 5518 5519 5519 5520
5540 5540 5539 5538 5537 5535 5534 5532 5529 5527 5525 5523 5522 5520 5518 5516 5514 5512 5511 5510 5509 5508 5508 5507 5507 5506 5505 5504 5502 5502 5501 5501 5502 5504 5504 5504 5505 5505 5505 5505 5505 5505 5506
5530 5528 5527 5526 5525 5523 5521 5519 5517 5515 5513 5511 5509 5507 5505 5503 5501 5499 5498 5497 5496 5495 5493 5493 5492 5491 5490 5489 5488 5487 5487 5487 5488 5490 5491 5490 5491 5492 5493 5493 5493 5492 5493
5519 5517 5516 5515 5513 5512 5509 5507 5505 5503 5501 5499 5497 5494 5492 5490 5488 5486 5484 5483 5482 5482 5480 5479 5478 5477 5476 5475 5474 5473 5473 5474 5475 5477 5478 5478 5478 5479 5480 5481 5480 5480 5481
Wind_Speed
35 34 34 35 35 35 35 35 36 36 36 36 36 36 35 35 35 35 35 34 34 33 33 33 33 33 33 33 33 33 33 33 33 32 32 32 32 32 32 32 32 32 32
36 36 36 36 37 36 36 36 37 37 37 37 37 37 37 37 37 37 37 36 36 36 36 35 36 36 36 35 35 35 34 35 34 34 34 34 34 34 34 34 34 33 33
39 38 38 38 38 39 38 39 39 39 38 39 39 39 39 38 39 39 39 38 38 39 39 38 38 38 38 37 37 36 36 36 36 36 36 36 36 35 35 35 34 34 34
41 41 40 40 40 40 40 41 40 40 40 40 40 40 40 40 40 40 40 40 40 41 41 40 40 40 40 40 39 39 39 38 38 38 38 38 37 37 36 36 35 36 36
42 42 42 42 42 42 42 42 41 41 41 40 40 40 40 40 41 41 41 41 42 42 42 42 42 42 42 42 42 42 41 41 41 40 40 39 39 38 38 38 38 38 38
43 43 43 43 43 43 43 43 43 42 41 42 42 42 41 42 42 42 42 42 42 42 43 44 44 45 45 45 45 44 44 44 43 43 42 41 40 41 41 41 40 40 40
44 44 44 45 45 44 43 44 44 43 43 43 43 43 43 43 43 43 43 43 44 44 44 45 46 46 46 46 46 46 46 46 45 44 43 43 43 43 43 43 42 41 41
43 44 44 45 45 45 45 45 46 45 45 45 45 45 44 43 44 45 45 45 45 46 47 47 47 47 47 47 48 47 47 46 46 45 44 44 44 44 44 44 43 43 42
45 45 45 45 46 46 47 46 47 47 47 46 46 47 47 47 46 46 46 47 48 48 48 47 48 48 47 47 47 47 47 47 47 47 46 45 44 44 44 44 43 43 43
45 45 46 46 47 47 47 47 47 47 47 46 47 47 48 49 48 47 47 47 48 49 49 49 48 49 48 48 47 47 47 47 48 48 48 48 46 45 46 46 45 45 45
44 44 45 46 47 48 48 48 48 48 47 47 48 48 49 50 50 50 49 48 48 48 49 50 50 49 48 48 48 47 47 48 48 49 49 49 48 47 47 48 47 46 46
44 44 45 46 47 48 48 48 47 47 48 48 49 49 50 50 50 50 50 49 49 49 49 50 51 51 50 49 48 48 48 48 48 49 49 50 49 48 48 48 48 47 47
44 45 45 45 46 47 48 48 48 49 49 49 49 49 50 50 50 50 51 50 50 49 50 50 50 51 51 50 49 49 49 49 49 50 50 50 50 50 49 48 49 48 47
44 45 46 46 46 47 47 47 48 49 49 50 49 49 50 50 50 51 51 51 50 49 49 50 50 51 51 51 51 50 49 49 50 50 50 50 50 50 49 49 48 48 48
44 44 45 47 46 46 46 47 47 48 48 49 50 50 50 51 51 51 51 52 52 51 49 49 50 50 51 51 51 51 51 50 49 49 49 50 49 49 48 48 47 48 48
44 45 45 46 45 46 47 48 47 47 47 48 49 50 50 51 51 50 51 52 52 52 51 49 49 50 51 51 51 51 51 50 49 49 49 49 49 49 48 47 47 48 48
43 44 44 44 44 45 46 46 46 47 47 47 48 49 50 50 51 51 51 52 52 52 52 49 50 50 50 50 50 50 50 50 49 49 48 49 49 49 50 48 47 47 47
42 43 43 44 44 44 45 45 46 46 46 47 49 49 49 50 50 51 51 52 52 52 51 50 49 49 49 49 50 50 49 49 49 49 48 48 49 49 50 48 46 47 47
40 41 42 43 44 44 45 45 46 46 46 46 47 48 49 49 49 49 49 50 50 50 50 50 49 48 49 49 50 50 50 50 48 48 48 48 48 48 48 48 47 46 48
40 41 42 42 43 44 45 46 45 45 46 46 47 47 48 48 48 48 49 49 49 49 49 49 48 48 48 49 49 49 49 48 48 48 47 47 47 48 48 48 48 47 48
41 41 41 42 42 43 44 44 45 45 45 46 47 47 47 48 48 49 48 48 48 48 48 47 47 47 47 48 48 48 49 48 49 48 48 48 48 47 47 47 47 48 48
41 41 41 41 41 41 42 43 44 45 46 46 46 47 47 47 48 47 47 47 47 47 46 46 46 47 47 47 47 48 49 49 48 48 48 48 48 47 46 46 47 48 47
41 41 40 40 41 41 42 43 44 45 45 46 46 46 46 46 46 46 46 46 45 45 46 46 47 47 48 48 48 48 49 49 49 48 49 48 47 47 46 46 47 48 48
39 39 40 40 41 42 43 43 43 44 44 44 45 45 45 44 44 44 45 45 45 45 46 46 47 47 47 47 48 48 48 48 48 48 48 48 48 47 46 47 47 48 48
38 38 39 40 40 41 41 42 42 42 42 42 43 44 44 44 44 44 44 44 45 45 46 46 46 46 46 46 46 47 48 48 47 47 46 46 46 46 45 44 44 44 45
37 37 38 39 39 39 40 40 41 41 41 41 42 42 43 43 43 44 43 44 44 44 43 43 43 43 43 44 44 45 45 45 45 44 44 44 44 44 43 42 42 42 43
Wind_Direction
261 260 261 260 260 261 261 262 263 264 264 265 266 266 266 266 266 268 269 270 271 270 271 272 273 275 275 276 276 276 275 275 275 275 275 276 276 276 276 276 276 276 276
261 261 261 260 260 261 263 264 265 266 265 265 266 267 267 266 266 268 268 269 269 269 270 271 272 274 275 275 275 275 275 275 275 275 275 275 275 276 276 275 276 277 277
261 262 263 261 261 262 263 265 267 267 268 267 266 266 266 267 267 267 268 268 269 270 270 271 272 273 274 274 274 274 274 275 275 275 275 275 275 276 276 276 276 276 277
262 263 263 262 262 263 264 266 266 266 266 266 266 266 266 267 267 267 267 268 269 270 270 271 272 273 274 274 273 273 273 273 274 274 274 274 274 275 275 276 276 276 276
262 262 262 262 262 264 265 265 266 266 265 266 266 267 267 267 267 267 267 268 269 270 271 271 272 273 273 273 272 272 273 273 273 273 273 273 273 274 274 276 276 276 275
262 262 261 262 262 263 265 265 265 266 266 267 267 268 268 267 267 266 268 269 270 271 271 271 272 272 272 273 273 272 272 272 272 272 272 271 272 273 274 275 276 276 275
262 261 261 261 262 263 265 266 266 266 267 268 268 267 267 268 267 267 268 269 269 270 270 271 272 272 272 272 272 272 271 271 271 271 270 270 271 272 273 274 275 275 275
263 263 262 263 261 263 265 267 266 266 268 268 268 268 268 268 269 269 269 269 270 270 271 271 272 272 271 271 271 271 271 270 270 270 270 270 271 272 273 273 273 274 274
263 263 263 263 263 264 265 267 267 267 268 269 269 270 270 269 269 270 270 271 271 271 271 271 272 272 272 271 271 270 270 269 269 269 269 269 269 271 273 273 273 273 273
262 263 263 263 263 263 265 267 268 267 268 269 270 271 272 272 272 271 271 271 271 271 271 272 272 273 272 270 270 270 269 269 270 269 269 268 268 270 272 272 273 272 272
263 262 262 263 264 264 265 267 268 268 269 270 271 272 273 273 274 273 272 272 272 272 272 272 272 271 271 270 269 269 269 270 270 270 269 269 268 269 270 271 271 271 271
264 263 263 264 264 264 265 267 268 268 269 270 272 273 273 274 274 273 273 272 272 272 272 272 272 271 270 270 269 269 269 270 270 270 270 269 268 268 269 270 270 270 270
265 263 264 265 265 266 266 268 268 268 269 270 271 273 273 273 273 273 273 273 273 272 272 272 272 271 270 269 269 269 270 270 270 270 270 269 268 267 268 269 269 269 270
266 266 266 266 266 266 267 269 270 269 270 270 271 273 273 273 273 273 273 273 273 273 273 272 270 270 269 269 269 269 270 271 271 270 269 269 268 267 268 268 268 268 269
266 266 266 266 266 266 267 269 270 270 270 270 271 272 272 273 273 273 273 274 274 274 274 272 270 268 268 268 269 268 269 270 271 271 270 269 269 267 268 268 268 267 267
267 266 266 266 266 266 267 269 270 269 270 271 271 272 273 274 274 274 274 274 275 275 274 272 270 268 267 268 268 269 268 269 270 270 270 270 269 268 268 267 267 266 266
268 267 266 266 266 267 268 269 270 269 269 270 271 272 273 273 273 274 275 275 275 275 274 272 270 269 268 267 268 268 268 269 269 269 269 269 269 268 267 267 267 266 266
268 267 267 267 267 269 270 270 270 270 270 271 272 273 274 273 274 274 274 274 273 274 273 271 269 268 267 267 267 267 268 268 268 268 268 268 268 267 267 266 267 267 265
267 267 268 268 268 269 270 271 270 271 272 273 273 274 274 275 275 274 274 274 273 272 272 271 269 268 267 266 267 267 267 267 268 267 267 267 266 266 266 267 267 267 266
267 268 269 270 269 269 270 271 271 271 272 274 275 275 275 275 275 275 274 274 273 272 271 271 270 268 268 269 268 266 266 266 266 266 266 266 267 267 267 267 267 266 266
268 269 270 270 270 270 271 272 272 273 274 275 275 276 275 275 275 275 275 274 273 272 271 271 270 269 269 269 268 267 266 266 266 266 267 267 268 269 267 266 266 265 266
269 269 270 270 270 271 273 274 274 275 276 276 276 276 275 275 275 275 274 273 273 271 270 269 269 269 269 269 269 268 267 266 265 266 267 267 268 268 267 266 266 265 266
270 269 269 270 271 273 274 275 276 276 276 276 276 276 276 275 276 275 273 272 272 271 270 270 269 269 270 270 270 269 268 267 266 266 267 267 268 268 267 267 266 266 266
272 270 270 271 273 275 276 276 277 277 277 277 277 276 276 276 276 274 272 272 271 270 270 271 272 271 271 271 270 270 269 267 266 265 267 267 267 268 269 268 267 267 266
274 273 273 273 275 276 277 278 278 278 278 278 278 277 277 276 275 275 274 273 272 272 272 273 273 273 273 273 272 271 270 267 266 265 267 267 267 267 268 268 268 267 266
276 275 275 276 276 277 279 280 280 280 279 279 279 279 278 278 277 277 276 274 273 273 273 274 274 274 273 272 272 271 269 267 266 265 265 265 265 266 266 266 266 266 267